Flag for U.S.A. Weather past 2 weeks in Modesto, California, U.S.A.

Now
65 °F

Sunny.


Feels Like: 65 °F
Forecast: 40 / 65 °F
Wind: 17 mph from Northwest

Location: Modesto City-County-Sham Field

Current Time: Mar 3, 2015 at 3:29:34 PM

Latest Report: Mar 3, 2015 at 2:53 PM


Visibility: 10 mi

Pressure: 29.95 "Hg

Humidity: 42%

Dew point: 41 °F

Location of ModestoLocation

Historic Weather in Modesto — Graph

°F

Modesto temperature yesterday

Maximum temperature yesterday: 63 °F (at 1:53 PM)
Minimum temperature yesterday: 43 °F (at 2:53 AM)
Average temperature yesterday: 53 °F

Past Weeks' High & Low Weather Summary

 TemperatureHumidityPressure
High72 °F (Feb 16, 3:53 PM)97% (Feb 19, 8:53 AM)30.35 "Hg (Feb 19, 8:53 AM)
Low37 °F (Feb 25, 6:58 AM)14% (Feb 24, 2:53 PM)29.71 "Hg (Feb 27, 5:53 PM)
Average53 °F72%30.00 "Hg
* Reported Feb 16 1:53 PM — Mar 3 1:53 PM, Modesto, Weather by CustomWeather, © 2015

Note: Actual official high and low records may vary slightly from our data, if they occured in-between our weather recording intervals... More about our weather records

Advertising

Modesto weather history for previous 24 hours

 ConditionsComfort  
Time TempWeatherWind HumidityBarometerVisibility
1:53 PM
Tue, Mar 3
65 °FSunny.13 mph47%29.97 "Hg10 mi
12:53 PM64 °FSunny.16 mph49%30.00 "Hg10 mi
11:53 AM61 °FSunny.14 mph54%30.02 "Hg10 mi
10:53 AM59 °FSunny.10 mph56%30.03 "Hg10 mi
9:53 AM55 °FSunny.9 mph64%30.05 "Hg10 mi
8:53 AM51 °FSunny.6 mph77%30.05 "Hg9 mi
7:53 AM46 °FSunny.5 mph86%30.03 "Hg8 mi
6:53 AM41 °FFog.No wind89%30.01 "Hg5 mi
5:53 AM42 °FClear.No wind85%30.00 "Hg8 mi
4:53 AM42 °FClear.No wind89%29.99 "Hg9 mi
3:53 AM43 °FClear.No wind89%29.98 "Hg10 mi
2:53 AM43 °FClear.3 mph89%29.99 "Hg10 mi
1:53 AM45 °FClear.3 mph86%29.99 "Hg10 mi
12:53 AM45 °FClear.No wind82%29.98 "Hg10 mi
11:53 PM
Mon, Mar 2
46 °FClear.3 mph86%29.98 "Hg10 mi
10:53 PM46 °FClear.6 mph86%29.97 "Hg10 mi
9:53 PM47 °FClear.6 mph83%29.96 "Hg10 mi
8:53 PM50 °FClear.No wind74%29.93 "Hg10 mi
7:53 PM52 °FClear.5 mph66%29.92 "Hg10 mi
6:53 PM57 °FPassing clouds.5 mph53%29.88 "Hg10 mi
5:53 PM58 °FSunny.5 mph51%29.84 "Hg10 mi
4:53 PM59 °FPassing clouds.10 mph49%29.83 "Hg10 mi
3:53 PM63 °FScattered clouds.15 mph43%29.81 "Hg10 mi
Weather by CustomWeather, © 2015

See weather overviewHow to use our weather pages